Content
SEND FEEDBACK

Daily
Averages
Monthly
Summary
United States of America

SOUTH BEND, INDIANA


Home > North America > United States > Indiana
Elevation: 773 feet     Latitude: 41 42N     Longitude: 086 19W

WEATHER
 
SELECT A DAY
Number of Records: 213,899;   Date Range: 1/1/95 - 9/3/14
 
SHARE

PRINT THIS DATA

[ ← Previous Day ]
WEATHER ALMANAC - JANUARY 31, 2013
[ Next Day → ]
[ °C ]   °F
Weather ElementAverageHighLow
Temperature17.9 °F24.8 °F (1:01 am)12 °F (9:54 pm)
Dewpoint12 °F18 °F (12:54 am)6.8 °F (11:43 pm)
Humidity77.8 %86 % (3:59 am)63 % (7:50 am)
Barometer29.78 in30.06 in (11:54 pm)29.53 in (1:01 am)
Wind Speed17.7 mph25.3 mph (12:54 am)
Wind Gust32.2 mph (12:54 am)
Weather ElementAverage
Visibility1.9 mi
Wind DirectionW (267.3 °)

Weather ElementTotal
Precipitation0.04 in
Heating Degree Days46.6 (Base 65)
Averaged from 67 records on January 31, 2013
WEATHER CONDITIONS BREAKOUT
WIND DIRECTION BREAKOUT
WEATHER BY HOUR - JANUARY 31, 2013
[ °C ]   °F
Local TimeTemperatureDewpointHumidityBarometerVisibilityWind DirectionWind SpeedGust SpeedPrecipitationEventsConditions
12:54 AM24.1 °F18.0 °F77 %29.55 in3.0 miWest (280°)25.3 mph32.2 mph0.00 inSnowLight Snow
1:01 AM24.8 °F17.6 °F74 %29.53 in2.5 miWest (280°)23.0 mph32.2 mph0.00 inSnowLight Snow
1:12 AM24.8 °F17.6 °F74 %29.54 in3.0 miWNW (290°)20.7 mph0.00 inSnowLight Snow
1:26 AM24.8 °F17.6 °F74 %29.54 in5.0 miWNW (290°)21.9 mph28.8 mph0.00 inSnowLight Snow
1:54 AM23.0 °F16.0 °F74 %29.57 in4.0 miWNW (290°)20.7 mph31.1 mph0.00 inSnowLight Snow
2:11 AM23.0 °F17.6 °F80 %29.56 in2.5 miWest (280°)20.7 mph28.8 mph0.00 inSnowLight Snow
2:19 AM23.0 °F17.6 °F80 %29.57 in1.2 miWest (270°)19.6 mph25.3 mph0.00 inSnowLight Snow
2:36 AM23.0 °F15.8 °F74 %29.59 in3.0 miWest (280°)18.4 mph31.1 mph0.00 inSnowLight Snow
2:54 AM21.9 °F16.0 °F78 %29.62 in3.0 miWest (280°)17.3 mph28.8 mph0.00 inSnowLight Snow
3:14 AM21.2 °F15.8 °F80 %29.60 in1.8 miWNW (290°)21.9 mph0.00 inSnowLight Snow
3:23 AM21.2 °F15.8 °F80 %29.60 in3.0 miWNW (290°)20.7 mph27.6 mph0.00 inSnowLight Snow
3:54 AM21.9 °F15.1 °F75 %29.63 in2.5 miWest (280°)20.7 mph0.00 inSnowLight Snow
3:59 AM21.2 °F17.6 °F86 %29.61 in0.8 miWest (280°)17.3 mph0.00 inSnowLight Snow
4:12 AM21.2 °F15.8 °F80 %29.61 in2.5 miWest (270°)18.4 mph24.2 mph0.00 inSnowLight Snow
4:20 AM21.2 °F14.0 °F74 %29.61 in8.0 miWest (270°)21.9 mph28.8 mph0.00 inOvercast
4:54 AM21.0 °F14.0 °F74 %29.66 in3.0 miWest (260°)18.4 mph31.1 mph0.00 inSnowLight Snow
5:21 AM19.4 °F14.0 °F80 %29.65 in2.0 miWest (260°)19.6 mph28.8 mph0.00 inSnowLight Snow
5:54 AM19.9 °F12.9 °F74 %29.69 in2.5 miWSW (250°)17.3 mph26.5 mph0.00 inSnowLight Snow
6:07 AM19.4 °F14.0 °F80 %29.66 in1.8 miWSW (250°)16.1 mph0.00 inSnowLight Snow
6:17 AM19.4 °F14.0 °F80 %29.66 in2.0 miWest (260°)17.3 mph0.00 inSnowLight Snow
6:54 AM19.0 °F12.0 °F74 %29.71 in2.0 miWest (270°)18.4 mph0.00 inSnowLight Snow
7:21 AM19.4 °F10.4 °F68 %29.69 in2.0 miWest (280°)20.7 mph32.2 mph0.00 inSnowLight Snow
7:27 AM19.4 °F10.4 °F68 %29.69 in2.0 miWest (270°)19.6 mph29.9 mph0.00 inSnowLight Snow
7:50 AM19.4 °F8.6 °F63 %29.70 in6.0 miWest (280°)17.3 mph0.00 inSnowLight Snow
7:54 AM19.0 °F9.0 °F65 %29.74 in7.0 miWest (280°)17.3 mph24.2 mph0.00 inSnowLight Snow
8:18 AM19.4 °F10.4 °F68 %29.72 in2.0 miWest (270°)17.3 mph25.3 mph0.00 inSnowLight Snow
8:20 AM19.4 °F10.4 °F68 %29.72 in1.0 miWest (260°)13.8 mph25.3 mph0.00 inSnowLight Snow
8:34 AM17.6 °F12.2 °F79 %29.73 in0.5 miWest (260°)12.7 mph0.00 inSnowSnow
8:54 AM17.1 °F12.9 °F84 %29.77 in0.5 miWSW (240°)13.8 mph0.01 inFog-SnowSnow
9:31 AM17.6 °F12.2 °F79 %29.75 in0.5 miWSW (240°)13.8 mph0.00 inFog-SnowSnow
9:54 AM17.1 °F12.9 °F84 %29.80 in0.5 miWSW (240°)12.7 mph0.00 inFog-SnowSnow
10:44 AM17.6 °F12.2 °F79 %29.78 in4.0 miWSW (250°)16.1 mph0.00 inSnowLight Snow
10:54 AM18.0 °F12.0 °F78 %29.82 in7.0 miWSW (250°)13.8 mph0.00 inSnowLight Snow
11:11 AM19.4 °F12.2 °F74 %29.79 in1.8 miWSW (240°)19.6 mph0.00 inSnowLight Snow
11:18 AM19.4 °F14.0 °F80 %29.79 in2.0 miWest (260°)16.1 mph24.2 mph0.00 inSnowLight Snow
11:27 AM19.4 °F12.2 °F74 %29.80 in0.5 miWSW (250°)17.3 mph24.2 mph0.00 inSnowSnow
11:54 AM18.0 °F12.0 °F78 %29.84 in0.5 miWSW (250°)17.3 mph27.6 mph0.00 inSnowSnow
12:20 PM17.6 °F10.4 °F73 %29.81 in1.0 miWSW (250°)21.9 mph27.6 mph0.00 inSnowLight Snow
12:54 PM18.0 °F10.9 °F74 %29.85 in4.0 miWest (270°)18.4 mph0.00 inSnowLight Snow
1:29 PM17.6 °F10.4 °F73 %29.81 in0.5 miWest (270°)21.9 mph0.00 inSnowSnow
1:40 PM19.4 °F12.2 °F74 %29.82 in0.5 miWest (280°)17.3 mph23.0 mph0.00 inSnowSnow
1:47 PM17.6 °F12.2 °F79 %29.82 in0.5 miWest (280°)20.7 mph27.6 mph0.00 inSnowHeavy Snow
1:50 PM17.6 °F12.2 °F79 %29.82 in0.2 miWest (270°)21.9 mph27.6 mph0.00 inFog-SnowHeavy Snow
1:54 PM17.1 °F12.9 °F84 %29.86 in0.2 miWest (270°)18.4 mph0.00 inFog-SnowHeavy Snow
1:57 PM17.6 °F12.2 °F79 %29.82 in0.5 miWest (270°)18.4 mph0.00 inFog-SnowLight Snow
2:54 PM17.1 °F10.9 °F77 %29.88 in0.5 miWest (270°)13.8 mph26.5 mph0.00 inSnowSnow
3:54 PM16.0 °F10.0 °F77 %29.89 in1.0 miWSW (250°)17.3 mph27.6 mph0.00 inSnowLight Snow
4:12 PM15.8 °F10.4 °F79 %29.85 in2.0 miWest (260°)23.0 mph26.5 mph0.00 inSnowLight Snow
4:23 PM15.8 °F10.4 °F79 %29.85 in2.0 miWest (260°)19.6 mph25.3 mph0.00 inSnowLight Snow
4:25 PM15.8 °F8.6 °F73 %29.85 in2.0 miWest (260°)20.7 mph27.6 mph0.00 inSnowLight Snow
4:54 PM15.1 °F9.0 °F77 %29.91 in2.0 miWSW (250°)15.0 mph0.00 inSnowLight Snow
5:45 PM15.8 °F10.4 °F79 %29.88 in0.8 miWest (260°)17.3 mph0.00 inSnowLight Snow
5:54 PM15.1 °F10.0 °F80 %29.92 in0.8 miWest (270°)16.1 mph0.00 inSnowLight Snow
6:54 PM14.0 °F10.0 °F84 %29.95 in1.0 miWest (260°)12.7 mph0.00 inSnowLight Snow
7:54 PM12.9 °F9.0 °F84 %29.98 in1.0 miWSW (250°)13.8 mph0.01 inSnowLight Snow
8:01 PM12.2 °F8.6 °F85 %29.94 in0.8 miWSW (250°)13.8 mph0.00 inSnowLight Snow
8:18 PM12.2 °F8.6 °F85 %29.94 in0.5 miWSW (250°)13.8 mph0.00 inFog-SnowSnow
8:44 PM12.2 °F8.6 °F85 %29.95 in0.8 miWest (270°)16.1 mph27.6 mph0.01 inSnowLight Snow
8:54 PM12.9 °F7.0 °F77 %30.00 in1.8 miWest (280°)16.1 mph26.5 mph0.01 inSnowLight Snow
9:54 PM12.0 °F8.1 °F84 %30.02 in1.0 miWest (270°)17.3 mph0.00 inSnowLight Snow
10:06 PM12.2 °F8.6 °F85 %29.98 in1.5 miWest (270°)13.8 mph0.00 inSnowLight Snow
10:27 PM12.2 °F8.6 °F85 %29.99 in1.0 miWest (280°)16.1 mph0.00 inSnowLight Snow
10:44 PM12.2 °F8.6 °F85 %29.99 in0.8 miWest (280°)15.0 mph0.00 inSnowLight Snow
10:54 PM12.0 °F8.1 °F84 %30.04 in0.8 miWest (280°)15.0 mph0.00 inSnowLight Snow
11:03 PM12.2 °F8.6 °F85 %30.00 in0.8 miWest (280°)12.7 mph21.9 mph0.00 inSnowLight Snow
11:43 PM12.2 °F6.8 °F79 %30.01 in1.0 miWest (280°)15.0 mph25.3 mph0.00 inSnowLight Snow
11:54 PM12.0 °F7.0 °F80 %30.06 in1.0 miWest (280°)16.1 mph24.2 mph0.00 inSnowLight Snow
Hourly data recorded from KSBN, located miles away from South Bend, Indiana







STORIES FROM OUR PARTNERS